• In Hungary
  • List of Countries
  • For 7 days
  • Water Temperature
  • Satellite Maps
  • Weather Map
  • News
  • Weather Widgets
  • user-avatar
    Login

    Hourly Weather Avezzano

    Today, 22 January, Monday

    Time Temperature Precipitation Wind Pressure Humidity
    00:00 +3°C° 0 mm 2 mps 694 mmHg 83%
    01:00 +3°C° 0 mm 2 mps 695 mmHg 82%
    02:00 +2°C° 0 mm 2 mps 695 mmHg 82%
    03:00 +2°C° 0 mm 2 mps 695 mmHg 81%
    04:00 +2°C° 0 mm 2 mps 695 mmHg 81%
    05:00 +3°C° 0 mm 1 mps 695 mmHg 80%
    06:00 +2°C° 0 mm 1 mps 695 mmHg 80%
    07:00 +2°C° 0 mm 1 mps 695 mmHg 80%
    08:00 +4°C° 0 mm 1 mps 696 mmHg 74%
    09:00 +5°C° 0 mm 1 mps 696 mmHg 68%
    10:00 +7°C° 0 mm 1 mps 696 mmHg 62%
    11:00 +7°C° 0 mm 1 mps 696 mmHg 61%
    12:00 +8°C° 0 mm 1 mps 696 mmHg 60%
    13:00 +9°C° 0 mm 1 mps 696 mmHg 59%
    14:00 +9°C° 0 mm 1 mps 696 mmHg 62%
    15:00 +9°C° 0 mm 1 mps 696 mmHg 65%
    16:00 +9°C° 0 mm 1 mps 696 mmHg 69%
    17:00 +8°C° 0 mm 1 mps 696 mmHg 73%
    18:00 +6°C° 0 mm 1 mps 695 mmHg 78%
    19:00 +5°C° 0 mm 1 mps 695 mmHg 82%
    20:00 +5°C° 0 mm 1 mps 695 mmHg 82%
    21:00 +5°C° 0 mm 0 mps 696 mmHg 82%
    22:00 +5°C° 0 mm 0 mps 696 mmHg 82%
    23:00 +6°C° 0.1 mm 1 mps 696 mmHg 82%

    Tomorrow, 23 January, Tuesday

    Time Temperature Precipitation Wind Pressure Humidity
    00:00 +6°C° 0.1 mm 1 mps 696 mmHg 82%
    01:00 +6°C° 0.1 mm 1 mps 696 mmHg 82%
    02:00 +5°C° 0 mm 1 mps 697 mmHg 83%
    03:00 +5°C° 0 mm 1 mps 697 mmHg 83%
    04:00 +5°C° 0 mm 1 mps 697 mmHg 84%
    05:00 +5°C° 0 mm 1 mps 697 mmHg 83%
    06:00 +4°C° 0 mm 1 mps 698 mmHg 83%
    07:00 +4°C° 0 mm 1 mps 698 mmHg 83%
    08:00 +5°C° 0 mm 1 mps 699 mmHg 77%
    09:00 +7°C° 0 mm 1 mps 700 mmHg 72%
    10:00 +8°C° 0 mm 1 mps 701 mmHg 66%
    11:00 +9°C° 0 mm 1 mps 701 mmHg 63%
    12:00 +11°C° 0 mm 1 mps 701 mmHg 59%
    13:00 +12°C° 0 mm 1 mps 702 mmHg 55%
    14:00 +11°C° 0 mm 1 mps 702 mmHg 59%
    15:00 +11°C° 0 mm 1 mps 702 mmHg 63%
    16:00 +11°C° 0 mm 1 mps 702 mmHg 66%
    17:00 +9°C° 0 mm 1 mps 702 mmHg 71%
    18:00 +8°C° 0 mm 1 mps 702 mmHg 76%
    19:00 +6°C° 0 mm 1 mps 702 mmHg 81%
    20:00 +6°C° 0 mm 1 mps 703 mmHg 82%
    21:00 +5°C° 0 mm 1 mps 703 mmHg 82%
    22:00 +5°C° 0 mm 1 mps 704 mmHg 82%
    23:00 +5°C° 0 mm 1 mps 704 mmHg 81%

    Day after tomorrow, 24 January, Wednesday

    Time Temperature Precipitation Wind Pressure Humidity
    00:00 +5°C° 0 mm 1 mps 704 mmHg 80%
    01:00 +5°C° 0 mm 1 mps 704 mmHg 79%
    02:00 +5°C° 0 mm 1 mps 704 mmHg 78%
    03:00 +4°C° 0 mm 1 mps 704 mmHg 77%
    04:00 +4°C° 0 mm 1 mps 704 mmHg 76%
    05:00 +4°C° 0 mm 1 mps 704 mmHg 75%
    06:00 +4°C° 0 mm 1 mps 705 mmHg 74%
    07:00 +4°C° 0 mm 1 mps 705 mmHg 73%
    08:00 +6°C° 0 mm 1 mps 705 mmHg 67%
    09:00 +7°C° 0 mm 1 mps 706 mmHg 62%
    10:00 +8°C° 0 mm 0 mps 706 mmHg 57%
    11:00 +9°C° 0 mm 0 mps 707 mmHg 54%
    12:00 +11°C° 0 mm 1 mps 707 mmHg 52%
    13:00 +12°C° 0 mm 1 mps 707 mmHg 50%
    14:00 +11°C° 0 mm 1 mps 707 mmHg 54%
    15:00 +11°C° 0 mm 1 mps 706 mmHg 58%
    16:00 +10°C° 0 mm 1 mps 706 mmHg 63%
    17:00 +9°C° 0 mm 1 mps 706 mmHg 68%
    18:00 +6°C° 0 mm 0 mps 706 mmHg 73%
    19:00 +5°C° 0 mm 0 mps 706 mmHg 78%
    20:00 +6°C° 0 mm 1 mps 706 mmHg 78%
    21:00 +5°C° 0 mm 1 mps 706 mmHg 79%
    22:00 +5°C° 0 mm 1 mps 706 mmHg 80%
    23:00 +5°C° 0 mm 1 mps 706 mmHg 80%

    25 January, Thursday

    Time Temperature Precipitation Wind Pressure Humidity
    00:00 +5°C° 0 mm 1 mps 705 mmHg 81%
    01:00 +5°C° 0 mm 1 mps 705 mmHg 81%
    02:00 +5°C° 0 mm 1 mps 705 mmHg 81%
    03:00 +4°C° 0 mm 1 mps 705 mmHg 81%
    04:00 +4°C° 0 mm 1 mps 704 mmHg 81%
    05:00 +4°C° 0 mm 1 mps 704 mmHg 80%
    06:00 +4°C° 0 mm 1 mps 704 mmHg 79%
    07:00 +4°C° 0 mm 1 mps 704 mmHg 78%
    08:00 +6°C° 0 mm 1 mps 704 mmHg 72%
    09:00 +7°C° 0 mm 1 mps 705 mmHg 65%
    10:00 +9°C° 0 mm 1 mps 705 mmHg 59%
    11:00 +10°C° 0 mm 1 mps 705 mmHg 56%
    12:00 +11°C° 0 mm 1 mps 704 mmHg 54%
    13:00 +12°C° 0 mm 2 mps 704 mmHg 52%
    14:00 +10°C° 0 mm 2 mps 704 mmHg 56%
    15:00 +11°C° 0 mm 1 mps 703 mmHg 60%
    16:00 +10°C° 0 mm 1 mps 703 mmHg 64%
    17:00 +9°C° 0 mm 1 mps 702 mmHg 70%
    18:00 +7°C° 0 mm 1 mps 702 mmHg 75%
    19:00 +6°C° 0 mm 1 mps 701 mmHg 81%
    20:00 +5°C° 0 mm 2 mps 701 mmHg 81%
    21:00 +5°C° 0 mm 2 mps 701 mmHg 81%
    22:00 +4°C° 0 mm 2 mps 701 mmHg 81%
    23:00 +5°C° 0 mm 2 mps 701 mmHg 83%

    26 January, Friday

    Time Temperature Precipitation Wind Pressure Humidity
    00:00 +5°C° 0 mm 2 mps 701 mmHg 85%
    01:00 +5°C° 0 mm 2 mps 700 mmHg 86%
    02:00 +5°C° 0.1 mm 2 mps 700 mmHg 88%
    03:00 +5°C° 0.1 mm 2 mps 700 mmHg 89%
    04:00 +5°C° 0.1 mm 2 mps 699 mmHg 91%
    05:00 +5°C° 0 mm 2 mps 699 mmHg 91%
    06:00 +5°C° 0 mm 2 mps 699 mmHg 91%
    07:00 +5°C° 0 mm 2 mps 699 mmHg 91%
    08:00 +6°C° 0.1 mm 2 mps 699 mmHg 87%
    09:00 +7°C° 0.1 mm 2 mps 699 mmHg 84%
    10:00 +8°C° 0.1 mm 2 mps 699 mmHg 81%
    11:00 +9°C° 0.1 mm 2 mps 699 mmHg 80%
    12:00 +9°C° 0.1 mm 2 mps 699 mmHg 79%
    13:00 +10°C° 0.1 mm 2 mps 699 mmHg 78%
    14:00 +9°C° 0.1 mm 2 mps 699 mmHg 80%
    15:00 +9°C° 0.1 mm 2 mps 699 mmHg 82%
    16:00 +9°C° 0.1 mm 2 mps 699 mmHg 84%
    17:00 +8°C° 0.1 mm 2 mps 699 mmHg 86%
    18:00 +8°C° 0.1 mm 2 mps 699 mmHg 88%
    19:00 +7°C° 0.1 mm 2 mps 699 mmHg 90%
    20:00 +7°C° 0 mm 2 mps 699 mmHg 90%
    21:00 +7°C° 0 mm 2 mps 699 mmHg 91%
    22:00 +6°C° 0 mm 2 mps 699 mmHg 91%
    23:00 +6°C° 0 mm 2 mps 699 mmHg 91%

    27 January, Saturday

    Time Temperature Precipitation Wind Pressure Humidity
    00:00 +6°C° 0 mm 2 mps 700 mmHg 91%
    01:00 +6°C° 0 mm 2 mps 700 mmHg 91%
    02:00 +6°C° 0 mm 2 mps 699 mmHg 91%
    03:00 +6°C° 0 mm 2 mps 699 mmHg 91%
    04:00 +6°C° 0 mm 2 mps 699 mmHg 91%
    05:00 +6°C° 0.1 mm 2 mps 699 mmHg 91%
    06:00 +7°C° 0.1 mm 1 mps 700 mmHg 91%
    07:00 +7°C° 0.1 mm 1 mps 700 mmHg 91%
    08:00 +8°C° 0.3 mm 1 mps 700 mmHg 88%
    09:00 +8°C° 0.3 mm 1 mps 701 mmHg 85%
    10:00 +9°C° 0.3 mm 1 mps 701 mmHg 83%
    11:00 +10°C° 0.2 mm 1 mps 701 mmHg 80%
    12:00 +11°C° 0.2 mm 1 mps 701 mmHg 77%
    13:00 +11°C° 0.2 mm 1 mps 702 mmHg 74%
    14:00 +11°C° 0.2 mm 1 mps 702 mmHg 76%
    15:00 +11°C° 0.2 mm 1 mps 702 mmHg 78%
    16:00 +11°C° 0.2 mm 1 mps 702 mmHg 80%
    17:00 +10°C° 0.2 mm 1 mps 702 mmHg 83%
    18:00 +9°C° 0.2 mm 1 mps 702 mmHg 87%
    19:00 +8°C° 0.2 mm 1 mps 702 mmHg 91%
    20:00 +8°C° 0 mm 1 mps 703 mmHg 91%
    21:00 +7°C° 0 mm 1 mps 703 mmHg 91%
    22:00 +7°C° 0 mm 1 mps 703 mmHg 92%
    23:00 +7°C° 0 mm 1 mps 703 mmHg 91%
    Show more